Year,Month,Day,Hour,Minute,Value (Times are PST for temperature in C)
2016,08,07,00,36,13.90
2016,08,07,00,37,13.90
2016,08,07,00,38,13.90
2016,08,07,00,39,13.90
2016,08,07,00,40,13.90
2016,08,07,00,41,13.90
2016,08,07,00,42,13.80
2016,08,07,00,43,13.80
2016,08,07,00,44,13.80
2016,08,07,00,45,13.80
2016,08,07,00,46,13.80
2016,08,07,00,47,13.80
2016,08,07,00,48,13.80
2016,08,07,00,49,13.80
2016,08,07,00,50,13.80
2016,08,07,00,51,13.80
2016,08,07,00,52,13.80
2016,08,07,00,53,13.80
2016,08,07,00,54,13.80
2016,08,07,00,55,13.80
2016,08,07,00,56,13.70
2016,08,07,00,57,13.70
2016,08,07,00,58,13.70
2016,08,07,00,59,13.70
2016,08,07,01,00,13.70
2016,08,07,01,01,13.70
2016,08,07,01,02,13.70
2016,08,07,01,03,13.60
2016,08,07,01,04,13.60
2016,08,07,01,05,13.60
2016,08,07,01,06,13.60
2016,08,07,01,07,13.60
2016,08,07,01,08,13.50
2016,08,07,01,09,13.50
2016,08,07,01,10,13.50
2016,08,07,01,11,13.50
2016,08,07,01,12,13.50
2016,08,07,01,13,13.50
2016,08,07,01,14,13.40
2016,08,07,01,15,13.40
2016,08,07,01,16,13.40
2016,08,07,01,17,13.40
2016,08,07,01,18,13.40
2016,08,07,01,19,13.40
2016,08,07,01,20,13.40
2016,08,07,01,21,13.40
2016,08,07,01,22,13.40
2016,08,07,01,23,13.40
2016,08,07,01,24,13.30
2016,08,07,01,25,13.30
2016,08,07,01,26,13.30
2016,08,07,01,27,13.30
2016,08,07,01,28,13.30
2016,08,07,01,29,13.30
2016,08,07,01,30,13.30
2016,08,07,01,31,13.30
2016,08,07,01,32,13.30
2016,08,07,01,33,13.30
2016,08,07,01,34,13.30
2016,08,07,01,35,13.30
2016,08,07,01,36,13.30
2016,08,07,01,37,13.30
2016,08,07,01,38,13.30
2016,08,07,01,39,13.20
2016,08,07,01,40,13.30
2016,08,07,01,41,13.20
2016,08,07,01,42,13.20
2016,08,07,01,43,13.20
2016,08,07,01,44,13.20
2016,08,07,01,45,13.20
2016,08,07,01,46,13.20
2016,08,07,01,47,13.20
2016,08,07,01,48,13.20
2016,08,07,01,49,13.10
2016,08,07,01,50,13.10
2016,08,07,01,51,13.10
2016,08,07,01,52,13.00
2016,08,07,01,53,13.00
2016,08,07,01,54,12.90
2016,08,07,01,55,12.90
2016,08,07,01,56,12.90
2016,08,07,01,57,12.80
2016,08,07,01,58,12.80
2016,08,07,01,59,12.80
2016,08,07,02,00,12.80
2016,08,07,02,01,12.70
2016,08,07,02,02,12.70
2016,08,07,02,03,12.70
2016,08,07,02,04,12.70
2016,08,07,02,05,12.70
2016,08,07,02,06,12.60
2016,08,07,02,07,12.60
2016,08,07,02,08,12.60
2016,08,07,02,09,12.60
2016,08,07,02,10,12.60
2016,08,07,02,11,12.60
2016,08,07,02,12,12.60
2016,08,07,02,13,12.60
2016,08,07,02,14,12.60
2016,08,07,02,15,12.50
2016,08,07,02,16,12.50
2016,08,07,02,17,12.50
2016,08,07,02,18,12.40
2016,08,07,02,19,12.40
2016,08,07,02,20,12.40
2016,08,07,02,21,12.40
2016,08,07,02,22,12.40
2016,08,07,02,23,12.40
2016,08,07,02,24,12.40
2016,08,07,02,25,12.40
2016,08,07,02,26,12.30
2016,08,07,02,27,12.30
2016,08,07,02,28,12.30
2016,08,07,02,29,12.30
2016,08,07,02,30,12.30
2016,08,07,02,31,12.30
2016,08,07,02,32,12.30
2016,08,07,02,33,12.30
2016,08,07,02,34,12.30
2016,08,07,02,35,12.30
2016,08,07,02,36,12.20
2016,08,07,02,37,12.20
2016,08,07,02,38,12.20
2016,08,07,02,39,12.20
2016,08,07,02,40,12.20
2016,08,07,02,41,12.20
2016,08,07,02,42,12.20
2016,08,07,02,43,12.20
2016,08,07,02,44,12.20
2016,08,07,02,45,12.20
2016,08,07,02,46,12.20
2016,08,07,02,47,12.20
2016,08,07,02,48,12.20
2016,08,07,02,49,12.20
2016,08,07,02,50,12.20
2016,08,07,02,51,12.20
2016,08,07,02,52,12.20
2016,08,07,02,53,12.20
2016,08,07,02,54,12.20
2016,08,07,02,55,12.20
2016,08,07,02,56,12.20
2016,08,07,02,57,12.20
2016,08,07,02,58,12.20
2016,08,07,02,59,12.20
2016,08,07,03,00,12.20
2016,08,07,03,01,12.20
2016,08,07,03,02,12.20
2016,08,07,03,03,12.20
2016,08,07,03,04,12.10
2016,08,07,03,05,12.10
2016,08,07,03,06,12.10
2016,08,07,03,07,12.10
2016,08,07,03,08,12.20
2016,08,07,03,09,12.20
2016,08,07,03,10,12.20
2016,08,07,03,11,12.20
2016,08,07,03,12,12.20
2016,08,07,03,13,12.20
2016,08,07,03,14,12.20
2016,08,07,03,15,12.20
2016,08,07,03,16,12.20
2016,08,07,03,17,12.20
2016,08,07,03,18,12.20
2016,08,07,03,19,12.20
2016,08,07,03,20,12.20
2016,08,07,03,21,12.20
2016,08,07,03,22,12.20
2016,08,07,03,23,12.30
2016,08,07,03,24,12.30
2016,08,07,03,25,12.30
2016,08,07,03,26,12.40
2016,08,07,03,27,12.40
2016,08,07,03,28,12.50
2016,08,07,03,29,12.50
2016,08,07,03,30,12.60
2016,08,07,03,31,12.60
2016,08,07,03,32,12.60
2016,08,07,03,33,12.60
2016,08,07,03,34,12.60
2016,08,07,03,35,12.60
2016,08,07,03,36,12.50
2016,08,07,03,37,12.50
2016,08,07,03,38,12.40
2016,08,07,03,39,12.40
2016,08,07,03,40,12.40
2016,08,07,03,41,12.40
2016,08,07,03,42,12.30
2016,08,07,03,43,12.30
2016,08,07,03,44,12.30
2016,08,07,03,45,12.30
2016,08,07,03,46,12.30
2016,08,07,03,47,12.30
2016,08,07,03,48,12.30
2016,08,07,03,49,12.30
2016,08,07,03,50,12.30
2016,08,07,03,51,12.30
2016,08,07,03,52,12.30
2016,08,07,03,53,12.30
2016,08,07,03,54,12.30
2016,08,07,03,55,12.30
2016,08,07,03,56,12.30
2016,08,07,03,57,12.30
2016,08,07,03,58,12.30
2016,08,07,03,59,12.30
2016,08,07,04,00,12.30
2016,08,07,04,01,12.30
2016,08,07,04,02,12.30
2016,08,07,04,03,12.30
2016,08,07,04,04,12.30
2016,08,07,04,05,12.30
2016,08,07,04,06,12.30
2016,08,07,04,07,12.30
2016,08,07,04,08,12.30
2016,08,07,04,09,12.30
2016,08,07,04,10,12.30
2016,08,07,04,11,12.40
2016,08,07,04,12,12.40
2016,08,07,04,13,12.40
2016,08,07,04,14,12.40
2016,08,07,04,15,12.40
2016,08,07,04,16,12.40
2016,08,07,04,17,12.40
2016,08,07,04,18,12.40
2016,08,07,04,19,12.40
2016,08,07,04,20,12.40
2016,08,07,04,21,12.50
2016,08,07,04,22,12.50
2016,08,07,04,23,12.50
2016,08,07,04,24,12.50
2016,08,07,04,25,12.50
2016,08,07,04,26,12.50
2016,08,07,04,27,12.60
2016,08,07,04,28,12.60
2016,08,07,04,29,12.60
2016,08,07,04,30,12.60
2016,08,07,04,31,12.60
2016,08,07,04,32,12.60
2016,08,07,04,33,12.60
2016,08,07,04,34,12.60
2016,08,07,04,35,12.60
2016,08,07,04,36,12.60
2016,08,07,04,37,12.60
2016,08,07,04,38,12.60
2016,08,07,04,39,12.60
2016,08,07,04,40,12.60
2016,08,07,04,41,12.60
2016,08,07,04,42,12.60
2016,08,07,04,43,12.60
2016,08,07,04,44,12.60
2016,08,07,04,45,12.60
2016,08,07,04,46,12.60
2016,08,07,04,47,12.60
2016,08,07,04,48,12.60
2016,08,07,04,49,12.60
2016,08,07,04,50,12.60
2016,08,07,04,51,12.60
2016,08,07,04,52,12.60
2016,08,07,04,53,12.70
2016,08,07,04,54,12.70
2016,08,07,04,55,12.70
2016,08,07,04,56,12.70
2016,08,07,04,57,12.70
2016,08,07,04,58,12.70
2016,08,07,04,59,12.70
2016,08,07,05,00,12.70
2016,08,07,05,01,12.70
2016,08,07,05,02,12.70
2016,08,07,05,03,12.70
2016,08,07,05,04,12.70
2016,08,07,05,05,12.70
2016,08,07,05,06,12.70
2016,08,07,05,07,12.70
2016,08,07,05,08,12.70
2016,08,07,05,09,12.70
2016,08,07,05,10,12.70
2016,08,07,05,11,12.70
2016,08,07,05,12,12.70
2016,08,07,05,13,12.70
2016,08,07,05,14,12.70
2016,08,07,05,15,12.70
2016,08,07,05,16,12.70
2016,08,07,05,17,12.70
2016,08,07,05,18,12.70
2016,08,07,05,19,12.60
2016,08,07,05,20,12.60
2016,08,07,05,21,12.60
2016,08,07,05,22,12.60
2016,08,07,05,23,12.60
2016,08,07,05,24,12.60
2016,08,07,05,25,12.60
2016,08,07,05,26,12.60
2016,08,07,05,27,12.60
2016,08,07,05,28,12.60
2016,08,07,05,29,12.60
2016,08,07,05,30,12.60
2016,08,07,05,31,12.60
2016,08,07,05,32,12.60
2016,08,07,05,33,12.60
2016,08,07,05,34,12.60
2016,08,07,05,35,12.60
2016,08,07,05,36,12.60
2016,08,07,05,37,12.60
2016,08,07,05,38,12.60
2016,08,07,05,39,12.60
2016,08,07,05,40,12.50
2016,08,07,05,41,12.50
2016,08,07,05,42,12.50
2016,08,07,05,43,12.60
2016,08,07,05,44,12.60
2016,08,07,05,45,12.60
2016,08,07,05,46,12.60
2016,08,07,05,47,12.60
2016,08,07,05,48,12.60
2016,08,07,05,49,12.60
2016,08,07,05,50,12.60
2016,08,07,05,51,12.60
2016,08,07,05,52,12.60
2016,08,07,05,53,12.60
2016,08,07,05,54,12.60
2016,08,07,05,55,12.60
2016,08,07,05,56,12.60
2016,08,07,05,57,12.60
2016,08,07,05,58,12.60
2016,08,07,05,59,12.60
2016,08,07,06,00,12.60
2016,08,07,06,01,12.50
2016,08,07,06,02,12.50
2016,08,07,06,03,12.50
2016,08,07,06,04,12.50
2016,08,07,06,05,12.50
2016,08,07,06,06,12.40
2016,08,07,06,07,12.40
2016,08,07,06,08,12.40
2016,08,07,06,09,12.40
2016,08,07,06,10,12.40
2016,08,07,06,11,12.40
2016,08,07,06,12,12.40
2016,08,07,06,13,12.40
2016,08,07,06,14,12.40
2016,08,07,06,15,12.40
2016,08,07,06,16,12.40
2016,08,07,06,17,12.40
2016,08,07,06,18,12.30
2016,08,07,06,19,12.30
2016,08,07,06,20,12.30
2016,08,07,06,21,12.40
2016,08,07,06,22,12.40
2016,08,07,06,23,12.40
2016,08,07,06,24,12.40
2016,08,07,06,25,12.40
2016,08,07,06,26,12.50
2016,08,07,06,27,12.50
2016,08,07,06,28,12.50
2016,08,07,06,29,12.60
2016,08,07,06,30,12.60
2016,08,07,06,31,12.60
2016,08,07,06,32,12.60
2016,08,07,06,33,12.60
2016,08,07,06,34,12.70
2016,08,07,06,35,12.70
2016,08,07,06,36,12.70
2016,08,07,06,37,12.70
2016,08,07,06,38,12.70
2016,08,07,06,39,12.70
2016,08,07,06,40,12.70
2016,08,07,06,41,12.70
2016,08,07,06,42,12.70
2016,08,07,06,43,12.70
2016,08,07,06,44,12.70
2016,08,07,06,45,12.70
2016,08,07,06,46,12.70
2016,08,07,06,47,12.70
2016,08,07,06,48,12.70
2016,08,07,06,49,12.80
2016,08,07,06,50,12.80
2016,08,07,06,51,12.80
2016,08,07,06,52,12.80
2016,08,07,06,53,12.80
2016,08,07,06,54,12.90
2016,08,07,06,55,12.90
2016,08,07,06,56,12.90
2016,08,07,06,57,13.00
2016,08,07,06,58,13.00
2016,08,07,06,59,13.10
2016,08,07,07,00,13.10
2016,08,07,07,01,13.10
2016,08,07,07,02,13.10
2016,08,07,07,03,13.10
2016,08,07,07,04,13.20
2016,08,07,07,05,13.20
2016,08,07,07,06,13.20
2016,08,07,07,07,13.20
2016,08,07,07,08,13.20
2016,08,07,07,09,13.20
2016,08,07,07,10,13.20
2016,08,07,07,11,13.30
2016,08,07,07,12,13.30
2016,08,07,07,13,13.30
2016,08,07,07,14,13.30
2016,08,07,07,15,13.30
2016,08,07,07,16,13.30
2016,08,07,07,17,13.30
2016,08,07,07,18,13.40
2016,08,07,07,19,13.40
2016,08,07,07,20,13.40
2016,08,07,07,21,13.40
2016,08,07,07,22,13.40
2016,08,07,07,23,13.40
2016,08,07,07,24,13.40
2016,08,07,07,25,13.40
2016,08,07,07,26,13.40
2016,08,07,07,27,13.40
2016,08,07,07,28,13.40
2016,08,07,07,29,13.50
2016,08,07,07,30,13.50
2016,08,07,07,31,13.50
2016,08,07,07,32,13.50
2016,08,07,07,33,13.60
2016,08,07,07,34,13.60
2016,08,07,07,35,13.60
2016,08,07,07,36,13.60
2016,08,07,07,37,13.60
2016,08,07,07,38,13.70
2016,08,07,07,39,13.70
2016,08,07,07,40,13.70
2016,08,07,07,41,13.70
2016,08,07,07,42,13.70
2016,08,07,07,43,13.80
2016,08,07,07,44,13.80
2016,08,07,07,45,13.80
2016,08,07,07,46,13.80
2016,08,07,07,47,13.80
2016,08,07,07,48,13.90
2016,08,07,07,49,13.90
2016,08,07,07,50,13.90
2016,08,07,07,51,13.90
2016,08,07,07,52,14.00
2016,08,07,07,53,14.00
2016,08,07,07,54,14.00
2016,08,07,07,55,14.10
2016,08,07,07,56,14.10
2016,08,07,07,57,14.10
2016,08,07,07,58,14.20
2016,08,07,07,59,14.20
2016,08,07,08,00,14.20
2016,08,07,08,01,14.30
2016,08,07,08,02,14.30
2016,08,07,08,03,14.30
2016,08,07,08,04,14.30
2016,08,07,08,05,14.40
2016,08,07,08,06,14.40
2016,08,07,08,07,14.40
2016,08,07,08,08,14.40
2016,08,07,08,09,14.50
2016,08,07,08,10,14.50
2016,08,07,08,11,14.50
2016,08,07,08,12,14.50
2016,08,07,08,13,14.50
2016,08,07,08,14,14.50
2016,08,07,08,15,14.60
2016,08,07,08,16,14.60
2016,08,07,08,17,14.60
2016,08,07,08,18,14.60
2016,08,07,08,19,14.70
2016,08,07,08,20,14.70
2016,08,07,08,21,14.80
2016,08,07,08,22,14.90
2016,08,07,08,23,14.90
2016,08,07,08,24,15.00
2016,08,07,08,25,15.00
2016,08,07,08,26,15.10
2016,08,07,08,27,15.10
2016,08,07,08,28,15.20
2016,08,07,08,29,15.20
2016,08,07,08,30,15.20
2016,08,07,08,31,15.30
2016,08,07,08,32,15.30
2016,08,07,08,33,15.30
2016,08,07,08,34,15.30
2016,08,07,08,35,15.30
2016,08,07,08,36,15.30
2016,08,07,08,37,15.30
2016,08,07,08,38,15.30
2016,08,07,08,39,15.30
2016,08,07,08,40,15.30
2016,08,07,08,41,15.30
2016,08,07,08,42,15.30
2016,08,07,08,43,15.20
2016,08,07,08,44,15.20
2016,08,07,08,45,15.20
2016,08,07,08,46,15.20
2016,08,07,08,47,15.30
2016,08,07,08,48,15.30
2016,08,07,08,49,15.30
2016,08,07,08,50,15.30
2016,08,07,08,51,15.30
2016,08,07,08,52,15.40
2016,08,07,08,53,15.50
2016,08,07,08,54,15.50
2016,08,07,08,55,15.60
2016,08,07,08,56,15.60
2016,08,07,08,57,15.70
2016,08,07,08,58,15.80
2016,08,07,08,59,15.80
2016,08,07,09,00,15.80
2016,08,07,09,01,15.90
2016,08,07,09,02,15.90
2016,08,07,09,03,16.00
2016,08,07,09,04,16.10
2016,08,07,09,05,16.10
2016,08,07,09,06,16.10
2016,08,07,09,07,16.10
2016,08,07,09,08,16.10
2016,08,07,09,09,16.10
2016,08,07,09,10,16.20
2016,08,07,09,11,16.20
2016,08,07,09,12,16.20
2016,08,07,09,13,16.20
2016,08,07,09,14,16.20
2016,08,07,09,15,16.20
2016,08,07,09,16,16.20
2016,08,07,09,17,16.20
2016,08,07,09,18,16.20
2016,08,07,09,19,16.10
2016,08,07,09,20,16.10
2016,08,07,09,21,16.00
2016,08,07,09,22,16.00
2016,08,07,09,23,15.90
2016,08,07,09,24,15.90
2016,08,07,09,25,15.90
2016,08,07,09,26,15.90
2016,08,07,09,27,15.90
2016,08,07,09,28,15.90
2016,08,07,09,29,15.90
2016,08,07,09,30,15.90
2016,08,07,09,31,15.90
2016,08,07,09,32,15.90
2016,08,07,09,33,15.90
2016,08,07,09,34,15.90
2016,08,07,09,35,16.00
2016,08,07,09,36,16.00
2016,08,07,09,37,16.10
2016,08,07,09,38,16.10
2016,08,07,09,39,16.20
2016,08,07,09,40,16.20
2016,08,07,09,41,16.20
2016,08,07,09,42,16.30
2016,08,07,09,43,16.30
2016,08,07,09,44,16.40
2016,08,07,09,45,16.50
2016,08,07,09,46,16.60
2016,08,07,09,47,16.70
2016,08,07,09,48,16.70
2016,08,07,09,49,16.80
2016,08,07,09,50,16.80
2016,08,07,09,51,16.90
2016,08,07,09,52,16.90
2016,08,07,09,53,16.90
2016,08,07,09,54,16.90
2016,08,07,09,55,16.90
2016,08,07,09,56,17.00
2016,08,07,09,57,17.00
2016,08,07,09,58,17.00
2016,08,07,09,59,17.00
2016,08,07,10,00,17.10
2016,08,07,10,01,17.10
2016,08,07,10,02,17.10
2016,08,07,10,03,17.10
2016,08,07,10,04,17.10
2016,08,07,10,05,17.10
2016,08,07,10,06,17.10
2016,08,07,10,07,17.20
2016,08,07,10,08,17.20
2016,08,07,10,09,17.20
2016,08,07,10,10,17.10
2016,08,07,10,11,17.10
2016,08,07,10,12,17.10
2016,08,07,10,13,17.00
2016,08,07,10,14,17.00
2016,08,07,10,15,16.90
2016,08,07,10,16,16.90
2016,08,07,10,17,16.90
2016,08,07,10,18,16.80
2016,08,07,10,19,16.80
2016,08,07,10,20,16.70
2016,08,07,10,21,16.70
2016,08,07,10,22,16.60
2016,08,07,10,23,16.60
2016,08,07,10,24,16.60
2016,08,07,10,25,16.60
2016,08,07,10,26,16.60
2016,08,07,10,27,16.60
2016,08,07,10,28,16.50
2016,08,07,10,29,16.50
2016,08,07,10,30,16.50
2016,08,07,10,31,16.40
2016,08,07,10,32,16.40
2016,08,07,10,33,16.40
2016,08,07,10,34,16.40
2016,08,07,10,35,16.40
2016,08,07,10,36,16.30
2016,08,07,10,37,16.30
2016,08,07,10,38,16.30
2016,08,07,10,39,16.30
2016,08,07,10,40,16.30
2016,08,07,10,41,16.30
2016,08,07,10,42,16.20
2016,08,07,10,43,16.20
2016,08,07,10,44,16.20
2016,08,07,10,45,16.20
2016,08,07,10,46,16.20
2016,08,07,10,47,16.10
2016,08,07,10,48,16.10
2016,08,07,10,49,16.00
2016,08,07,10,50,16.00
2016,08,07,10,51,15.90
2016,08,07,10,52,15.90
2016,08,07,10,53,15.80
2016,08,07,10,54,15.80
2016,08,07,10,55,15.80
2016,08,07,10,56,15.80
2016,08,07,10,57,15.80
2016,08,07,10,58,15.80
2016,08,07,10,59,15.80
2016,08,07,11,00,15.80
2016,08,07,11,01,15.80
2016,08,07,11,02,15.80
2016,08,07,11,03,15.80
2016,08,07,11,04,15.80
2016,08,07,11,05,15.70
2016,08,07,11,06,15.70
2016,08,07,11,07,15.70
2016,08,07,11,08,15.70
2016,08,07,11,09,15.70
2016,08,07,11,10,15.70
2016,08,07,11,11,15.70
2016,08,07,11,12,15.70
2016,08,07,11,13,15.70
2016,08,07,11,14,15.70
2016,08,07,11,15,15.60
2016,08,07,11,16,15.60
2016,08,07,11,17,15.60
2016,08,07,11,18,15.60
2016,08,07,11,19,15.60
2016,08,07,11,20,15.60
2016,08,07,11,21,15.60
2016,08,07,11,22,15.60
2016,08,07,11,23,15.60
2016,08,07,11,24,15.60
2016,08,07,11,25,15.50
2016,08,07,11,26,15.50
2016,08,07,11,27,15.40
2016,08,07,11,28,15.40
2016,08,07,11,29,15.40
2016,08,07,11,30,15.40
2016,08,07,11,31,15.50
2016,08,07,11,32,15.50
2016,08,07,11,33,15.50
2016,08,07,11,34,15.40
2016,08,07,11,35,15.40
2016,08,07,11,36,15.40
2016,08,07,11,37,15.40
2016,08,07,11,38,15.40
2016,08,07,11,39,15.30
2016,08,07,11,40,15.30
2016,08,07,11,41,15.30
2016,08,07,11,42,15.30
2016,08,07,11,43,15.30
2016,08,07,11,44,15.30
2016,08,07,11,45,15.30
2016,08,07,11,46,15.30
2016,08,07,11,47,15.30
2016,08,07,11,48,15.30
2016,08,07,11,49,15.30
2016,08,07,11,50,15.30
2016,08,07,11,51,15.30
2016,08,07,11,52,15.20
2016,08,07,11,53,15.20
2016,08,07,11,54,15.20
2016,08,07,11,55,15.20
2016,08,07,11,56,15.20
2016,08,07,11,57,15.20
2016,08,07,11,58,15.20
2016,08,07,11,59,15.20
2016,08,07,12,00,15.20
2016,08,07,12,01,15.20
2016,08,07,12,02,15.30
2016,08,07,12,03,15.30
2016,08,07,12,04,15.30
2016,08,07,12,05,15.30
2016,08,07,12,06,15.30
2016,08,07,12,07,15.40
2016,08,07,12,08,15.40
2016,08,07,12,09,15.40
2016,08,07,12,10,15.40
2016,08,07,12,11,15.40
2016,08,07,12,12,15.40
2016,08,07,12,13,15.40
2016,08,07,12,14,15.40
2016,08,07,12,15,15.50
2016,08,07,12,16,15.50
2016,08,07,12,17,15.60
2016,08,07,12,18,15.70
2016,08,07,12,19,15.70
2016,08,07,12,20,15.80
2016,08,07,12,21,15.90
2016,08,07,12,22,15.90
2016,08,07,12,23,16.00
2016,08,07,12,24,16.00
2016,08,07,12,25,16.00
2016,08,07,12,26,16.10
2016,08,07,12,27,16.10
2016,08,07,12,28,16.10
2016,08,07,12,29,16.10
2016,08,07,12,30,16.10
2016,08,07,12,31,16.20
2016,08,07,12,32,16.20
2016,08,07,12,33,16.20
2016,08,07,12,34,16.20
2016,08,07,12,35,16.20
2016,08,07,12,36,16.20
2016,08,07,12,37,16.20
2016,08,07,12,38,16.20
2016,08,07,12,39,16.30
2016,08,07,12,40,16.30
2016,08,07,12,41,16.30
2016,08,07,12,42,16.30
2016,08,07,12,43,16.30
2016,08,07,12,44,16.30
2016,08,07,12,45,16.30
2016,08,07,12,46,16.40
2016,08,07,12,47,16.40
2016,08,07,12,48,16.40
2016,08,07,12,49,16.40
2016,08,07,12,50,16.30
2016,08,07,12,51,16.30
2016,08,07,12,52,16.30
2016,08,07,12,53,16.30
2016,08,07,12,54,16.40
2016,08,07,12,55,16.40
2016,08,07,12,56,16.40
2016,08,07,12,57,16.30
2016,08,07,12,58,16.30
2016,08,07,12,59,16.30
2016,08,07,13,00,16.20
2016,08,07,13,01,16.20
2016,08,07,13,02,16.20
2016,08,07,13,03,16.10
2016,08,07,13,04,16.10
2016,08,07,13,05,16.10
2016,08,07,13,06,16.00
2016,08,07,13,07,16.00
2016,08,07,13,08,15.90
2016,08,07,13,09,15.90
2016,08,07,13,10,15.80
2016,08,07,13,11,15.80
2016,08,07,13,12,15.80
2016,08,07,13,13,15.80
2016,08,07,13,14,15.80
2016,08,07,13,15,15.80
2016,08,07,13,16,15.80
2016,08,07,13,17,15.80
2016,08,07,13,18,15.80
2016,08,07,13,19,15.80
2016,08,07,13,20,15.80
2016,08,07,13,21,15.80
2016,08,07,13,22,15.80
2016,08,07,13,23,15.80
2016,08,07,13,24,15.80
2016,08,07,13,25,15.80
2016,08,07,13,26,15.80
2016,08,07,13,27,15.80
2016,08,07,13,28,15.80
2016,08,07,13,29,15.80
2016,08,07,13,30,15.80
2016,08,07,13,31,15.80
2016,08,07,13,32,15.90
2016,08,07,13,33,15.90
2016,08,07,13,34,15.90
2016,08,07,13,35,15.90
2016,08,07,13,36,15.90
2016,08,07,13,37,15.90
2016,08,07,13,38,15.90
2016,08,07,13,39,16.00
2016,08,07,13,40,15.90
2016,08,07,13,41,15.90
2016,08,07,13,42,15.90
2016,08,07,13,43,16.00
2016,08,07,13,44,16.00
2016,08,07,13,45,16.00
2016,08,07,13,46,16.00
2016,08,07,13,47,16.00
2016,08,07,13,48,16.00
2016,08,07,13,49,16.00
2016,08,07,13,50,16.00
2016,08,07,13,51,16.00
2016,08,07,13,52,16.00
2016,08,07,13,53,15.90
2016,08,07,13,54,15.90
2016,08,07,13,55,15.90
2016,08,07,13,56,15.90
2016,08,07,13,57,15.90
2016,08,07,13,58,15.80
2016,08,07,13,59,15.80
2016,08,07,14,00,15.80
2016,08,07,14,01,15.70
2016,08,07,14,02,15.70
2016,08,07,14,03,15.70
2016,08,07,14,04,15.70
2016,08,07,14,05,15.70
2016,08,07,14,06,15.60
2016,08,07,14,07,15.60
2016,08,07,14,08,15.60
2016,08,07,14,09,15.60
2016,08,07,14,10,15.60
2016,08,07,14,11,15.60
2016,08,07,14,12,15.50
2016,08,07,14,13,15.50
2016,08,07,14,14,15.40
2016,08,07,14,15,15.40
2016,08,07,14,16,15.40
2016,08,07,14,17,15.40
2016,08,07,14,18,15.40
2016,08,07,14,19,15.40
2016,08,07,14,20,15.40
2016,08,07,14,21,15.40
2016,08,07,14,22,15.40
2016,08,07,14,23,15.30
2016,08,07,14,24,15.30
2016,08,07,14,25,15.30
2016,08,07,14,26,15.30
2016,08,07,14,27,15.30
2016,08,07,14,28,15.30
2016,08,07,14,29,15.30
2016,08,07,14,30,15.30
2016,08,07,14,31,15.30
2016,08,07,14,32,15.30
2016,08,07,14,33,15.30
2016,08,07,14,34,15.30
2016,08,07,14,35,15.30
2016,08,07,14,36,15.30
2016,08,07,14,37,15.30
2016,08,07,14,38,15.30
2016,08,07,14,39,15.30
2016,08,07,14,40,15.30
2016,08,07,14,41,15.30
2016,08,07,14,42,15.30
2016,08,07,14,43,15.30
2016,08,07,14,44,15.30
2016,08,07,14,45,15.40
2016,08,07,14,46,15.40
2016,08,07,14,47,15.40
2016,08,07,14,48,15.40
2016,08,07,14,49,15.40
2016,08,07,14,50,15.40
2016,08,07,14,51,15.40
2016,08,07,14,52,15.40
2016,08,07,14,53,15.40
2016,08,07,14,54,15.40
2016,08,07,14,55,15.40
2016,08,07,14,56,15.30
2016,08,07,14,57,15.30
2016,08,07,14,58,15.40
2016,08,07,14,59,15.40
2016,08,07,15,00,15.40
2016,08,07,15,01,15.40
2016,08,07,15,02,15.40
2016,08,07,15,03,15.40
2016,08,07,15,04,15.40
2016,08,07,15,05,15.50
2016,08,07,15,06,15.60
2016,08,07,15,07,15.60
2016,08,07,15,08,15.60
2016,08,07,15,09,15.70
2016,08,07,15,10,15.70
2016,08,07,15,11,15.60
2016,08,07,15,12,15.60
2016,08,07,15,13,15.60
2016,08,07,15,14,15.60
2016,08,07,15,15,15.60
2016,08,07,15,16,15.60
2016,08,07,15,17,15.70
2016,08,07,15,18,15.70
2016,08,07,15,19,15.70
2016,08,07,15,20,15.70
2016,08,07,15,21,15.70
2016,08,07,15,22,15.80
2016,08,07,15,23,15.80
2016,08,07,15,24,15.80
2016,08,07,15,25,15.90
2016,08,07,15,26,15.90
2016,08,07,15,27,15.90
2016,08,07,15,28,16.00
2016,08,07,15,29,16.00
2016,08,07,15,30,16.00
2016,08,07,15,31,16.00
2016,08,07,15,32,16.00
2016,08,07,15,33,16.00
2016,08,07,15,34,15.90
2016,08,07,15,35,15.90
2016,08,07,15,36,15.80
2016,08,07,15,37,15.80
2016,08,07,15,38,15.80
2016,08,07,15,39,15.80
2016,08,07,15,40,15.80
2016,08,07,15,41,15.80
2016,08,07,15,42,15.80
2016,08,07,15,43,15.90
2016,08,07,15,44,15.90
2016,08,07,15,45,16.00
2016,08,07,15,46,15.90
2016,08,07,15,47,15.90
2016,08,07,15,48,15.90
2016,08,07,15,49,15.90
2016,08,07,15,50,15.90
2016,08,07,15,51,15.90
2016,08,07,15,52,15.90
2016,08,07,15,53,15.90
2016,08,07,15,54,15.90
2016,08,07,15,55,15.90
2016,08,07,15,56,15.90
2016,08,07,15,57,15.90
2016,08,07,15,58,15.90
2016,08,07,15,59,15.90
2016,08,07,16,00,15.90
2016,08,07,16,01,15.90
2016,08,07,16,02,16.00
2016,08,07,16,03,16.00
2016,08,07,16,04,16.00
2016,08,07,16,05,16.10
2016,08,07,16,06,16.10
2016,08,07,16,07,16.10
2016,08,07,16,08,16.10
2016,08,07,16,09,16.20
2016,08,07,16,10,16.20
2016,08,07,16,11,16.20
2016,08,07,16,12,16.20
2016,08,07,16,13,16.20
2016,08,07,16,14,16.20
2016,08,07,16,15,16.30
2016,08,07,16,16,16.30
2016,08,07,16,17,16.30
2016,08,07,16,18,16.30
2016,08,07,16,19,16.20
2016,08,07,16,20,16.20
2016,08,07,16,21,16.20
2016,08,07,16,22,16.20
2016,08,07,16,23,16.20
2016,08,07,16,24,16.10
2016,08,07,16,25,16.10
2016,08,07,16,26,16.10
2016,08,07,16,27,16.10
2016,08,07,16,28,16.00
2016,08,07,16,29,16.00
2016,08,07,16,30,16.00
2016,08,07,16,31,16.00
2016,08,07,16,32,16.00
2016,08,07,16,33,16.10
2016,08,07,16,34,16.10
2016,08,07,16,35,16.10
2016,08,07,16,36,16.10
2016,08,07,16,37,16.10
2016,08,07,16,38,16.20
2016,08,07,16,39,16.20
2016,08,07,16,40,16.20
2016,08,07,16,41,16.20
2016,08,07,16,42,16.20
2016,08,07,16,43,16.20
2016,08,07,16,44,16.20
2016,08,07,16,45,16.20
2016,08,07,16,46,16.20
2016,08,07,16,47,16.20
2016,08,07,16,48,16.10
2016,08,07,16,49,16.10
2016,08,07,16,50,16.10
2016,08,07,16,51,16.10
2016,08,07,16,52,16.00
2016,08,07,16,53,16.00
2016,08,07,16,54,16.00
2016,08,07,16,55,15.90
2016,08,07,16,56,15.90
2016,08,07,16,57,15.90
2016,08,07,16,58,15.90
2016,08,07,16,59,15.80
2016,08,07,17,00,15.80
2016,08,07,17,01,15.80
2016,08,07,17,02,15.80
2016,08,07,17,03,15.80
2016,08,07,17,04,15.70
2016,08,07,17,05,15.70
2016,08,07,17,06,15.70
2016,08,07,17,07,15.70
2016,08,07,17,08,15.60
2016,08,07,17,09,15.60
2016,08,07,17,10,15.60
2016,08,07,17,11,15.60
2016,08,07,17,12,15.60
2016,08,07,17,13,15.60
2016,08,07,17,14,15.60
2016,08,07,17,15,15.60
2016,08,07,17,16,15.60
2016,08,07,17,17,15.60
2016,08,07,17,18,15.60
2016,08,07,17,19,15.50
2016,08,07,17,20,15.50
2016,08,07,17,21,15.50
2016,08,07,17,22,15.50
2016,08,07,17,23,15.50
2016,08,07,17,24,15.50
2016,08,07,17,25,15.50
2016,08,07,17,26,15.50
2016,08,07,17,27,15.50
2016,08,07,17,28,15.50
2016,08,07,17,29,15.50
2016,08,07,17,30,15.50
2016,08,07,17,31,15.50
2016,08,07,17,32,15.50
2016,08,07,17,33,15.60
2016,08,07,17,34,15.60
2016,08,07,17,35,15.60
2016,08,07,17,36,15.60
2016,08,07,17,37,15.60
2016,08,07,17,38,15.50
2016,08,07,17,39,15.50
2016,08,07,17,40,15.50
2016,08,07,17,41,15.60
2016,08,07,17,42,15.60
2016,08,07,17,43,15.60
2016,08,07,17,44,15.60
2016,08,07,17,45,15.60
2016,08,07,17,46,15.60
2016,08,07,17,47,15.60
2016,08,07,17,48,15.60
2016,08,07,17,49,15.60
2016,08,07,17,50,15.60
2016,08,07,17,51,15.70
2016,08,07,17,52,15.70
2016,08,07,17,53,15.70
2016,08,07,17,54,15.80
2016,08,07,17,55,15.80